Location: Kapuskasing
(49.3803°N, 82.4001°W)
Time: 00:27:21
(UTC-05:00)

ISS - Visible Passes

Search period start: 10 December 2023 00:00
Search period end: 20 December 2023 00:00
Orbit: 415 x 417 km, 51.6° (Epoch: 09 December)

Date Brightness Start Highest point End Pass type
(mag) Time Alt. Az. Time Alt. Az. Time Alt. Az.
15 Dec -0.5 07:09:53 10° S 07:11:38 14° SE 07:13:25 10° ESE visible
17 Dec -1.6 07:07:30 10° SSW 07:10:25 28° SE 07:13:22 10° E visible
18 Dec -1.1 06:19:18 10° S 06:21:46 19° SE 06:24:14 10° E visible
19 Dec -0.8 05:32:00 11° SSE 05:33:08 13° SE 05:34:39 10° ESE visible
19 Dec -3.1 07:06:00 10° SW 07:09:17 57° SSE 07:12:35 10° ENE visible
